Meteo Giornale » Osservazioni meteo Repubblica Ceca » Praha-Ruzyne

ore: 04:51 - Osservazioni Meteo Praha-Ruzyne
Lat. 50° 6' N Lon. 14° 15' E Alt. 365 metri s.l.m.

coperto_pioggia Europe/Prague

19 °C

Pioggia Debole

Temp. 24 Ore

16 °C

28 °C

Sud-Ovest

11.1 Km/h

Dew point 17 °C

Umidità 88 %

Visibilità  10 Km

Il sole sorge alle ore 05:25

Il sole tramonta alle ore 20:53

Data e Ora Cielo e Fenomeni T °C DP °C Um. % Pres. hPa Vis. km Vento km/h
Oggi h: 04:51 coperto_pioggia Pioggia Debole 19 17 88 1013 10 SO 11.1
Oggi h: 04:30 sereno Sereno 18 17 93 1013 10 O/SO 13
Oggi h: 04:00 sereno Sereno 18 17 93 1013 10 O/SO 11.1
Oggi h: 03:30 sereno Sereno 18 16 88 1013 10 SO 13
Oggi h: 03:00 sereno Sereno 19 16 82 1012 10 S/SE 7.4
Oggi h: 02:30 sereno Sereno 19 17 88 1012 10 N 5.5
Oggi h: 02:00 sereno Sereno 19 16 82 1013 10 N 3.7
Oggi h: 01:30 sereno Sereno 19 16 82 1013 10 N 5.5
Oggi h: 01:00 sereno Sereno 19 16 82 1014 10 O 11.1
Oggi h: 00:30 sereno Sereno 21 15 68 1013 10 N 1.8
Oggi h: 00:00 sereno Sereno 21 15 68 1013 10 N 0
Ieri h: 23:30 sereno Sereno 20 16 77 1014 10 N 5.5
Ieri h: 23:00 sereno Sereno 20 16 77 1014 10 N 5.5
Ieri h: 22:30 sereno Sereno 20 16 77 1014 10 S/SE 7.4
Ieri h: 22:00 sereno Sereno 21 16 73 1014 10 S/SE 7.4
Ieri h: 21:30 sereno Sereno 21 16 73 1014 10 N 5.5
Ieri h: 21:00 sereno Sereno 23 15 60 1013 10 N 5.5
Ieri h: 20:30 sereno Sereno 24 15 57 1013 10 N 5.5
Ieri h: 19:30 sereno Sereno 25 15 53 1013 10 S 9.3
Ieri h: 19:00 sereno Sereno 27 15 47 1013 10 S/SO 11.1
Ieri h: 18:30 sereno Sereno 27 15 47 1013 10 S/SO 11.1
Ieri h: 18:00 sereno Sereno 27 14 44 1014 10 SO 11.1
Ieri h: 17:30 sereno Sereno 27 14 44 1014 10 S 11.1
Ieri h: 17:00 sereno Sereno 28 14 42 1014 10 S/SO 11.1
Ieri h: 16:30 sereno Sereno 28 15 45 1014 10 SO 7.4
Ieri h: 16:00 sereno Sereno 27 16 50 1015 10 S 11.1
Ieri h: 15:47 sereno Sereno 28 16 48 1015 10 SO 13
Ieri h: 15:30 sereno Sereno 26 14 47 1015 10 S 11.1
Ieri h: 15:00 sereno Sereno 26 15 50 1015 10 S 11.1
Ieri h: 14:30 sereno Sereno 27 14 44 1015 10 S 13
Ieri h: 14:00 nuvoloso Nuvoloso 27 14 44 1015 10 S 16.7
Ieri h: 13:30 nuvoloso Nuvoloso 25 14 50 1015 10 S 13
Ieri h: 13:00 nuvoloso Nuvoloso 26 16 54 1016 10 S/SO 14.8
Ieri h: 12:30 nuvoloso Nuvoloso 25 15 53 1016 10 SO 13
Ieri h: 12:00 poco_nuvoloso Poco Nuvoloso 25 15 53 1016 10 O/SO 13
Ieri h: 11:30 poco_nuvoloso Poco Nuvoloso 24 15 57 1016 10 O/SO 11.1
Ieri h: 11:00 poco_nuvoloso Poco Nuvoloso 24 16 60 1016 10 SO 11.1
Ieri h: 10:30 poco_nuvoloso Poco Nuvoloso 23 16 64 1016 10 SO 13
Ieri h: 10:00 poco_nuvoloso Poco Nuvoloso 22 16 68 1016 10 SO 16.7
Ieri h: 09:30 sereno Sereno 21 16 73 1016 10 SO 18.5
Ieri h: 09:00 sereno Sereno 20 16 77 1016 10 SO 14.8
Ieri h: 08:30 sereno Sereno 19 16 82 1015 10 O/SO 14.8
Ieri h: 08:00 sereno Sereno 18 16 88 1015 10 SO 18.5
Ieri h: 07:30 sereno Sereno 18 16 88 1015 10 SO 14.8
Ieri h: 07:00 sereno Sereno 17 16 93 1015 10 S/SO 14.8
Ieri h: 06:30 sereno Sereno 16 15 93 1015 10 SO 20.3
Ieri h: 06:00 sereno Sereno 16 15 93 1015 10 SO 20.3